Weather in Kovalivka

Ukraine / Poltava Region     50°01′22″N   34°03′37″E
temp.,
°C
wind,
m/s
gust,
m/s
humid.,
%
clouds,
%
prec.,
mm/h
press.,
hPa
HPBL,
m
14 april, wed
wed1400:00+10sse377790 0.0 1020210
03:00+9sse3484100 0.0 101998
06:00+9se358681 0.0 1019124
09:00+11sse3474100 0.0 1018436
12:00+15se4454100 0.1 10171470
15:00+14sse3353100 0.1 10161247
18:00+12ese5775100 0.1 1016390
21:00+11ese2478100 0.1 1015103
15 april, thu
thu1500:00+10ese237799 0.0 101575
03:00+9se238250 0.0 101448
06:00+7se339098 0.0 101339
09:00+11sse346798 0.0 1014403
12:00+14se4552100 0.0 10121466
15:00+10sse5779100 0.1 1013481
18:00+11sse357399 0.1 1012514
21:00+9ese368435 0.1 1012135
16 april, fri
fri1600:00+8sse3688100 0.2 1011146
03:00+7s3694100 0.3 1012198
06:00+7sse3693100 1.0 1012472
09:00+7sse578587 1.3 1013686
12:00+7sse5887100 0.3 10141044
15:00+9sse687586 0.4 1015967
18:00+7s598299 0.1 1016800
21:00+6ssw2587100 0.1 1017356
17 april, sat
sat1700:00+4sse23916 0.0 101863
03:00+3sse259054 0.0 1019161
06:00+3se238756 0.0 1020123
09:00+7sse237558 0.0 1021650
12:00+9s336188 0.1 10211221
15:00+10s2255100 0.1 10211255
18:00+9w226197 0.0 1021463
21:00+8sw116597 0.0 102115
18 april, sun
sun1800:00+8wsw227094 0.0 102132
03:00+7sw1173100 0.0 102125
06:00+7ene2273100 0.0 102252
09:00+9ese336039 0.0 1022949
12:00+11sse225167 0.1 10221334
15:00+13sse1245100 0.1 10221529
18:00+12e125199 0.0 1022466
21:00+10ene476799 0.0 1022256